This is the latest recevied weather packets stored in our database for station/object IW1PPB-3. If no packets are shown the sender has not sent any weather packets the latest 1 day(s).
| Time | Temp. | Humidity | Pressure | Rain* | Wind** | Luminosity | Snow |
|---|---|---|---|---|---|---|---|
| 1778018027 | 15.56° C | - | - | 0 mm | 1.34 m/s, 360° | - | - |
| 1778017410 | 15.56° C | - | - | 0 mm | 1.79 m/s, 360° | - | - |
| 1778016823 | 15.56° C | - | - | 0 mm | 1.34 m/s, 360° | - | - |
| 1778016221 | 15.56° C | - | - | 0 mm | 1.79 m/s, 360° | - | - |
| 1778015615 | 15.56° C | - | - | 0 mm | 1.79 m/s, 360° | - | - |
| 1778015018 | 15.56° C | - | - | 0 mm | 2.24 m/s, 360° | - | - |
| 1778014415 | 15.56° C | - | - | 0 mm | 1.79 m/s, 360° | - | - |
| 1778013814 | 15.56° C | - | - | 0 mm | 1.79 m/s, 360° | - | - |
| 1778013207 | 15.56° C | - | - | 0 mm | 2.24 m/s, 360° | - | - |
| 1778012609 | 15.56° C | - | - | 0 mm | 1.79 m/s, 360° | - | - |
| 1778012021 | 15° C | - | - | 0 mm | 1.34 m/s, 360° | - | - |
| 1778011402 | 15° C | - | - | 0 mm | 1.79 m/s, 360° | - | - |
| 1778010808 | 15° C | - | - | 0 mm | 2.68 m/s, 360° | - | - |
| 1778010218 | 15° C | - | - | 0 mm | 0.89 m/s, 360° | - | - |
| 1778009603 | 15° C | - | - | 0 mm | 1.34 m/s, 360° | - | - |
| 1778009016 | 15° C | - | - | 0 mm | 2.24 m/s, 360° | - | - |
| 1778008408 | 15.56° C | - | - | 0 mm | 0.89 m/s, 360° | - | - |
| 1778007804 | 15.56° C | - | - | 0 mm | 0.89 m/s, 360° | - | - |
| 1778007220 | 15.56° C | - | - | 0 mm | 1.34 m/s, 360° | - | - |
| 1778006629 | 16.11° C | - | - | 0 mm | 0.89 m/s, 360° | - | - |
| 1778006012 | 16.11° C | - | - | 0 mm | 1.34 m/s, 360° | - | - |
| 1778005422 | 16.67° C | - | - | 0 mm | 0.89 m/s, 360° | - | - |
| 1778004805 | 17.22° C | - | - | 0 mm | 1.79 m/s, 360° | - | - |
| 1778004210 | 17.22° C | - | - | 0 mm | 0.45 m/s, 360° | - | - |
| 1778003616 | 17.22° C | - | - | 0 mm | 0 m/s | - | - |
* Rain latest hour (hover to see other rain measurements)
** Current wind speed in m/s (hover to see current wind gust speed)